N709LP KRIC-KPWM

Flight info

Callsign N709LP
Flight time N/A
Altitude 41000
Route LUCYL6 LUCYL HYTRA GRACO BROSS Q419 RBV Q22 LLUND BDR SCOGS3
Aircraft CL60/M-SBDE1E2E3FGHIJ1J4J5J7M3RWXYZ/LB1V1D1

Departure

Time N/A
Airport Richmond International Airport (KRIC)

Arrival

Time 2026-05-08 01:58
Airport Portland International Jetport (KPWM)
Time Latitude Longitude Altitude Speed Heading
2026-05-08 01:01 40.37796 -74.30624 40871 ft 532 kts 33°
2026-05-08 01:01 40.43586 -74.24378 40862 ft 533 kts 33°
2026-05-08 01:02 40.49330 -74.18173 40860 ft 534 kts 33°
2026-05-08 01:02 40.55145 -74.11884 40862 ft 534 kts 33°
2026-05-08 01:03 40.60915 -74.05632 40887 ft 534 kts 33°
2026-05-08 01:03 40.66285 -73.99803 40853 ft 534 kts 33°
2026-05-08 01:04 40.72078 -73.93504 40867 ft 534 kts 33°
2026-05-08 01:04 40.77831 -73.87237 40841 ft 536 kts 33°
2026-05-08 01:05 40.83575 -73.80769 40867 ft 538 kts 39°
2026-05-08 01:05 40.90334 -73.69295 40866 ft 548 kts 56°
2026-05-08 01:06 40.92303 -73.64939 40878 ft 548 kts 56°
2026-05-08 01:06 40.96249 -73.56203 40866 ft 549 kts 56°
2026-05-08 01:07 41.00204 -73.47443 40875 ft 551 kts 57°
2026-05-08 01:07 41.04136 -73.38722 40896 ft 551 kts 57°
2026-05-08 01:08 41.08013 -73.30105 40866 ft 550 kts 57°
2026-05-08 01:08 41.11727 -73.21839 40876 ft 550 kts 58°
2026-05-08 01:09 41.15646 -73.13097 40873 ft 550 kts 58°
2026-05-08 01:09 41.19713 -73.04373 40888 ft 549 kts 56°
2026-05-08 01:10 41.23762 -72.95755 40887 ft 549 kts 56°
2026-05-08 01:10 41.27848 -72.87034 40871 ft 549 kts 56°
2026-05-08 01:11 41.31895 -72.78370 40890 ft 549 kts 56°
2026-05-08 01:11 41.35935 -72.69697 40879 ft 550 kts 56°
2026-05-08 01:12 41.39954 -72.61043 40885 ft 549 kts 57°
2026-05-08 01:12 41.43977 -72.52359 40889 ft 550 kts 56°
2026-05-08 01:13 41.48002 -72.43642 40887 ft 549 kts 56°
2026-05-08 01:13 41.52028 -72.34899 40883 ft 550 kts 57°
2026-05-08 01:14 41.56055 -72.26129 40866 ft 549 kts 57°
2026-05-08 01:14 41.60046 -72.17409 40870 ft 549 kts 57°
2026-05-08 01:15 41.64039 -72.08665 40874 ft 549 kts 57°
2026-05-08 01:15 41.68039 -71.99876 40871 ft 549 kts 57°
2026-05-08 01:16 41.72023 -71.91095 40582 ft 555 kts 57°
2026-05-08 01:16 41.74033 -71.86657 40149 ft 559 kts 57°
2026-05-08 01:16 41.76060 -71.82170 39673 ft 556 kts 57°
2026-05-08 01:16 41.78053 -71.77753 38990 ft 553 kts 58°
2026-05-08 01:17 41.80073 -71.73270 38173 ft 554 kts 58°
2026-05-08 01:17 41.82073 -71.68823 37309 ft 556 kts 58°
2026-05-08 01:17 41.84082 -71.64305 36464 ft 557 kts 60°
2026-05-08 01:17 41.85905 -71.59727 35661 ft 556 kts 64°
2026-05-08 01:18 41.87591 -71.55026 34979 ft 555 kts 65°
2026-05-08 01:18 41.89263 -71.50320 34368 ft 553 kts 65°
2026-05-08 01:18 41.90920 -71.45661 33802 ft 550 kts 65°
2026-05-08 01:18 41.92574 -71.41009 33229 ft 545 kts 65°
2026-05-08 01:19 41.94217 -71.36385 32641 ft 544 kts 65°
2026-05-08 01:19 41.95849 -71.31789 32075 ft 541 kts 66°
2026-05-08 01:19 41.97486 -71.27171 31477 ft 537 kts 66°
2026-05-08 01:19 41.99077 -71.22684 30930 ft 533 kts 65°
2026-05-08 01:20 42.00684 -71.18143 30325 ft 528 kts 66°
2026-05-08 01:20 42.02255 -71.13703 29744 ft 523 kts 66°
2026-05-08 01:20 42.03822 -71.09268 29167 ft 518 kts 66°
2026-05-08 01:20 42.05370 -71.04882 28593 ft 514 kts 66°
2026-05-08 01:21 42.06937 -71.00576 28030 ft 510 kts 62°
2026-05-08 01:21 42.08964 -70.96611 27488 ft 504 kts 48°
2026-05-08 01:21 42.11476 -70.93378 26950 ft 494 kts 34°
2026-05-08 01:21 42.14460 -70.90979 26404 ft 479 kts 18°
2026-05-08 01:22 42.17554 -70.89423 25825 ft 472 kts 13°
2026-05-08 01:22 42.20672 -70.87943 25239 ft 467 kts 13°
2026-05-08 01:22 42.23722 -70.86491 24668 ft 463 kts 13°
2026-05-08 01:22 42.26760 -70.85046 24089 ft 459 kts 13°
2026-05-08 01:23 42.29765 -70.83619 23574 ft 453 kts 13°
2026-05-08 01:23 42.32744 -70.82206 23120 ft 450 kts 13°
2026-05-08 01:23 42.35695 -70.80808 22674 ft 448 kts 13°
2026-05-08 01:23 42.38649 -70.79409 22222 ft 445 kts 13°
2026-05-08 01:24 42.41579 -70.78020 21775 ft 441 kts 13°
2026-05-08 01:24 42.44423 -70.76619 21271 ft 425 kts 14°
2026-05-08 01:24 42.47126 -70.75163 20826 ft 410 kts 16°
2026-05-08 01:24 42.49741 -70.73709 20370 ft 394 kts 15°
2026-05-08 01:25 42.52258 -70.72318 20053 ft 392 kts 15°
2026-05-08 01:25 42.54803 -70.70915 19548 ft 389 kts 15°
2026-05-08 01:25 42.57288 -70.69544 19096 ft 385 kts 15°
2026-05-08 01:25 42.59787 -70.68162 18620 ft 382 kts 15°
2026-05-08 01:26 42.62255 -70.66800 18217 ft 381 kts 15°
2026-05-08 01:26 42.64713 -70.65443 17752 ft 378 kts 16°
2026-05-08 01:26 42.67139 -70.64092 17329 ft 371 kts 16°
2026-05-08 01:26 42.69503 -70.62695 17077 ft 367 kts 18°
2026-05-08 01:27 42.71823 -70.61240 16814 ft 365 kts 19°
2026-05-08 01:27 42.74147 -70.59771 16550 ft 363 kts 19°
2026-05-08 01:27 42.76419 -70.58335 16325 ft 361 kts 19°
2026-05-08 01:27 42.78704 -70.56890 16031 ft 358 kts 19°
2026-05-08 01:28 42.80983 -70.55448 15731 ft 353 kts 18°
2026-05-08 01:28 42.83212 -70.54038 15423 ft 350 kts 19°
2026-05-08 01:28 42.85409 -70.52648 15120 ft 348 kts 19°
2026-05-08 01:28 42.87583 -70.51272 14798 ft 344 kts 19°
2026-05-08 01:29 42.89758 -70.49894 14473 ft 339 kts 19°
2026-05-08 01:29 42.91917 -70.48525 14135 ft 333 kts 19°
2026-05-08 01:29 42.93987 -70.47210 13765 ft 321 kts 19°
2026-05-08 01:29 42.95978 -70.45945 13433 ft 307 kts 18°
2026-05-08 01:30 42.97872 -70.44743 13141 ft 296 kts 18°
2026-05-08 01:30 42.99729 -70.43568 12824 ft 286 kts 18°
2026-05-08 01:30 43.01482 -70.42450 12496 ft 268 kts 19°
2026-05-08 01:30 43.03135 -70.41272 12112 ft 269 kts 23°
2026-05-08 01:31 43.04754 -70.39964 11703 ft 268 kts 26°
2026-05-08 01:31 43.06327 -70.38586 11296 ft 266 kts 27°
2026-05-08 01:31 43.07875 -70.37224 10904 ft 263 kts 27°
2026-05-08 01:31 43.09409 -70.35878 10490 ft 258 kts 27°
2026-05-08 01:32 43.10896 -70.34573 10121 ft 254 kts 28°
2026-05-08 01:32 43.12342 -70.33307 9790 ft 252 kts 28°
2026-05-08 01:32 43.13807 -70.32024 9439 ft 249 kts 28°
2026-05-08 01:32 43.15244 -70.30765 9089 ft 238 kts 29°
2026-05-08 01:33 43.16611 -70.29566 8830 ft 227 kts 28°
2026-05-08 01:33 43.17955 -70.28383 8549 ft 224 kts 28°
2026-05-08 01:33 43.19250 -70.27245 8256 ft 221 kts 28°
2026-05-08 01:33 43.20553 -70.26099 7959 ft 219 kts 29°
2026-05-08 01:34 43.21832 -70.24973 7702 ft 214 kts 29°
2026-05-08 01:34 43.23069 -70.23885 7458 ft 205 kts 29°
2026-05-08 01:34 43.24250 -70.22847 7198 ft 199 kts 28°
2026-05-08 01:34 43.25402 -70.21841 6929 ft 194 kts 28°
2026-05-08 01:35 43.26580 -70.20830 6636 ft 201 kts 28°
2026-05-08 01:35 43.27767 -70.19813 6346 ft 202 kts 29°
2026-05-08 01:35 43.28953 -70.18791 6068 ft 200 kts 28°
2026-05-08 01:35 43.30143 -70.17767 5789 ft 198 kts 28°
2026-05-08 01:36 43.31314 -70.16756 5518 ft 198 kts 28°
2026-05-08 01:36 43.32473 -70.15803 5247 ft 189 kts 26°
2026-05-08 01:36 43.33602 -70.14912 4986 ft 183 kts 26°
2026-05-08 01:36 43.34703 -70.14045 4715 ft 178 kts 26°
2026-05-08 01:37 43.35787 -70.13192 4434 ft 180 kts 25°
2026-05-08 01:37 43.36881 -70.12251 4190 ft 204 kts 33°
2026-05-08 01:37 43.38071 -70.11146 4140 ft 192 kts 21°
2026-05-08 01:37 43.39290 -70.10520 3850 ft 183 kts 19°
2026-05-08 01:38 43.40395 -70.09696 3558 ft 178 kts 26°
2026-05-08 01:38 43.41457 -70.08831 3224 ft 174 kts 26°
2026-05-08 01:38 43.42486 -70.08001 2995 ft 167 kts 26°
2026-05-08 01:38 43.43521 -70.07172 2982 ft 171 kts 26°
2026-05-08 01:39 43.44566 -70.06335 2989 ft 172 kts 25°
2026-05-08 01:39 43.45606 -70.05502 2993 ft 171 kts 26°
2026-05-08 01:39 43.46640 -70.04676 2990 ft 171 kts 26°
2026-05-08 01:39 43.47677 -70.03848 2993 ft 171 kts 25°
2026-05-08 01:40 43.48706 -70.03026 2997 ft 171 kts 25°
2026-05-08 01:40 43.49744 -70.02196 2991 ft 170 kts 25°
2026-05-08 01:40 43.50781 -70.01369 2996 ft 171 kts 26°
2026-05-08 01:40 43.51820 -70.00540 2991 ft 171 kts 25°
2026-05-08 01:41 43.52856 -69.99715 2993 ft 171 kts 26°
2026-05-08 01:41 43.53889 -69.98891 2992 ft 171 kts 25°
2026-05-08 01:41 43.54929 -69.98063 2997 ft 172 kts 25°
2026-05-08 01:41 43.55967 -69.97235 2988 ft 171 kts 25°
2026-05-08 01:42 43.57021 -69.96462 2993 ft 169 kts 14°
2026-05-08 01:42 43.58156 -69.96478 2996 ft 162 kts 336°
2026-05-08 01:42 43.59002 -69.97485 3007 ft 161 kts 307°
2026-05-08 01:42 43.59622 -69.98764 3011 ft 160 kts 306°
2026-05-08 01:43 43.60249 -70.00045 2998 ft 160 kts 307°
2026-05-08 01:43 43.60878 -70.01326 2991 ft 159 kts 306°
2026-05-08 01:43 43.61498 -70.02593 2993 ft 159 kts 306°
2026-05-08 01:43 43.62122 -70.03872 2990 ft 159 kts 306°
2026-05-08 01:44 43.62689 -70.05180 2993 ft 160 kts 292°
2026-05-08 01:44 43.62800 -70.06752 2993 ft 164 kts 277°
2026-05-08 01:44 43.62889 -70.08328 2996 ft 162 kts 281°
2026-05-08 01:44 43.63028 -70.09898 2893 ft 165 kts 282°
2026-05-08 01:45 43.63164 -70.11486 2660 ft 164 kts 281°
2026-05-08 01:45 43.63278 -70.13037 2452 ft 162 kts 280°
2026-05-08 01:45 43.63384 -70.14585 2202 ft 159 kts 281°
2026-05-08 01:45 43.63489 -70.16117 2011 ft 160 kts 281°
2026-05-08 01:46 43.63596 -70.17654 1817 ft 160 kts 281°
2026-05-08 01:46 43.63703 -70.19189 1590 ft 160 kts 281°
2026-05-08 01:46 43.63809 -70.20712 1380 ft 160 kts 280°
2026-05-08 01:46 43.63914 -70.22241 1162 ft 152 kts 280°
2026-05-08 01:47 43.63996 -70.23569 1011 ft 124 kts 280°
2026-05-08 01:47 43.64069 -70.24744 837 ft 122 kts 280°
2026-05-08 01:47 43.64150 -70.25892 634 ft 117 kts 280°
2026-05-08 01:48 43.64418 -70.28220 723 ft 130 kts 289°
2026-05-08 01:48 43.64649 -70.29443 1082 ft 131 kts 288°
2026-05-08 01:48 43.64857 -70.30709 1288 ft 150 kts 287°
2026-05-08 01:48 43.64888 -70.32208 1513 ft 160 kts 250°
2026-05-08 01:49 43.63976 -70.33153 1761 ft 187 kts 193°
2026-05-08 01:49 43.62718 -70.32633 2070 ft 187 kts 137°
2026-05-08 01:49 43.62136 -70.31083 2039 ft 181 kts 97°
2026-05-08 01:49 43.61942 -70.29388 1969 ft 173 kts 95°
2026-05-08 01:50 43.61778 -70.27707 1935 ft 182 kts 93°
2026-05-08 01:50 43.61639 -70.26005 1993 ft 175 kts 92°
2026-05-08 01:50 43.61451 -70.24315 1990 ft 176 kts 97°
2026-05-08 01:50 43.61200 -70.22604 2015 ft 184 kts 99°
2026-05-08 01:51 43.60916 -70.20842 2070 ft 184 kts 100°
2026-05-08 01:51 43.60621 -70.19157 2213 ft 183 kts 102°
2026-05-08 01:51 43.60286 -70.17454 2393 ft 181 kts 102°
2026-05-08 01:51 43.59911 -70.15762 2530 ft 185 kts 106°
2026-05-08 01:52 43.59512 -70.14134 2583 ft 180 kts 103°
2026-05-08 01:52 43.59343 -70.12411 2607 ft 179 kts 94°
2026-05-08 01:52 43.59172 -70.10707 2677 ft 179 kts 96°
2026-05-08 01:52 43.59248 -70.09053 2654 ft 168 kts 58°
2026-05-08 01:53 43.60091 -70.08215 2667 ft 138 kts 360°
2026-05-08 01:53 43.60967 -70.08697 2665 ft 150 kts 316°
2026-05-08 01:53 43.61691 -70.09836 2679 ft 153 kts 314°
2026-05-08 01:53 43.62424 -70.10907 2693 ft 156 kts 315°
2026-05-08 01:54 43.63111 -70.12091 2586 ft 159 kts 302°
2026-05-08 01:54 43.63461 -70.13544 2385 ft 158 kts 284°
2026-05-08 01:54 43.63537 -70.15012 2153 ft 149 kts 277°
2026-05-08 01:54 43.63552 -70.16462 1987 ft 147 kts 278°
2026-05-08 01:55 43.63591 -70.17780 1829 ft 146 kts 280°
2026-05-08 01:55 43.63678 -70.19183 1580 ft 133 kts 281°
2026-05-08 01:55 43.63761 -70.20395 1460 ft 123 kts 282°
2026-05-08 01:55 43.63850 -70.21555 1246 ft 118 kts 282°
2026-05-08 01:56 43.63939 -70.22687 1097 ft 118 kts 282°
2026-05-08 01:56 43.64026 -70.23817 939 ft 117 kts 281°
2026-05-08 01:56 43.64104 -70.24936 774 ft 117 kts 280°
2026-05-08 01:56 43.64172 -70.26066 613 ft 115 kts 276°
2026-05-08 01:57 43.64208 -70.27215 443 ft 119 kts 279°
2026-05-08 01:57 43.64293 -70.28357 306 ft 118 kts 281°
2026-05-08 01:57 43.64373 -70.29473 141 ft 117 kts 278°
2026-05-08 01:57 43.64447 -70.30554 51 ft 101 kts 279°
2026-05-08 01:58 43.64496 -70.31240 65 ft 14 kts 276°
2026-05-08 01:58 43.64508 -70.31348 67 ft 7 kts 313°
2026-05-08 01:58 43.64554 -70.31351 67 ft 3 kts
2026-05-08 01:58 43.64579 -70.31347 67 ft 5 kts
2026-05-08 01:59 43.64585 -70.31346 67 ft 0 kts
2026-05-08 02:01 43.64588 -70.31345 67 ft 2 kts
2026-05-08 02:01 43.64609 -70.31293 66 ft 10 kts 95°
2026-05-08 02:01 43.64600 -70.31174 64 ft 11 kts 96°
2026-05-08 02:01 43.64591 -70.31033 61 ft 18 kts 95°
2026-05-08 02:02 43.64579 -70.30862 57 ft 8 kts 95°
2026-05-08 02:02 43.64570 -70.30750 53 ft 9 kts 97°
2026-05-08 02:02 43.64634 -70.30700 51 ft 15 kts 357°
2026-05-08 02:02 43.64733 -70.30704 52 ft 10 kts 358°
2026-05-08 02:03 43.64799 -70.30706 52 ft 10 kts 358°
2026-05-08 02:03 43.64860 -70.30708 52 ft 6 kts 358°
2026-05-08 02:03 43.64907 -70.30717 52 ft 5 kts 315°
2026-05-08 02:03 43.64910 -70.30770 54 ft 6 kts 270°
2026-05-08 02:04 43.64910 -70.30821 56 ft 4 kts 271°
2026-05-08 02:04 43.64924 -70.30837 57 ft 0 kts
2026-05-08 02:04 43.64926 -70.30837 57 ft 0 kts 360°